Theta_e
317 317 315 314 314 314 314 315 315 316 315 314 312 310 308 307 306 306 306 306 306 305 305 305 306 307 307 308 307 308 307 308 314 316 316 320 318 314 312 311 313 312 312 313 313 314 314 314 315 314 316 317 320 322 320 321 322 323 327 323 319 321 320 319 320 319 320 319 316 317 317 317 316 315 315 315 315 316 316 316 317 317 316 319 329 333 332 331
317 316 315 314 314 314 314 314 315 315 315 314 313 311 308 307 306 305 305 305 305 305 305 305 306 307 307 307 307 308 307 308 316 320 319 319 313 311 313 312 313 312 312 314 314 314 314 314 314 314 317 318 320 322 322 321 320 323 325 321 320 323 321 319 319 318 320 318 316 317 317 317 316 316 315 315 315 315 316 317 317 318 317 317 326 331 330 329
317 316 314 313 314 314 314 314 314 314 314 313 312 311 309 307 306 305 305 305 305 305 305 305 305 306 307 307 308 306 308 314 316 318 320 316 311 312 313 312 313 312 314 317 316 314 314 315 314 314 316 316 317 319 321 321 319 321 324 322 321 321 318 318 318 317 318 318 317 316 316 317 316 316 315 315 316 315 316 316 316 317 318 317 322 328 329 329
317 316 314 313 314 313 313 313 313 314 314 313 312 311 310 307 306 305 305 305 305 305 304 305 305 306 306 307 307 307 313 318 316 318 318 313 311 313 312 313 313 313 314 315 314 314 314 315 314 314 316 316 316 317 318 319 319 319 320 320 318 318 318 317 316 316 317 318 318 317 317 316 316 317 315 316 316 316 316 317 317 316 318 318 319 325 328 329
316 316 314 313 313 313 313 313 313 313 313 314 313 312 310 308 307 305 305 305 305 304 304 305 305 306 306 307 306 310 318 317 315 320 316 311 312 312 312 312 312 312 313 313 314 314 313 314 314 315 315 316 316 316 315 315 317 318 317 317 317 317 318 316 315 316 317 318 318 317 316 316 316 317 316 317 316 317 317 317 318 318 321 318 318 324 327 329
316 316 315 314 313 312 312 312 313 312 313 315 313 312 310 309 307 306 305 305 305 304 305 305 305 306 306 308 306 313 320 314 316 320 314 311 313 311 312 311 312 312 312 313 314 314 314 314 314 315 315 315 316 315 315 315 315 317 316 316 316 317 317 315 315 316 317 317 317 316 316 316 316 316 316 317 316 317 318 318 319 319 321 318 318 323 325 327
316 315 315 314 312 312 312 312 312 312 314 315 314 312 311 309 307 306 305 305 305 304 305 305 305 306 307 309 309 313 319 314 316 318 312 312 312 312 312 312 313 312 313 315 314 314 314 314 314 315 315 315 315 314 315 315 315 316 316 315 316 316 316 315 314 314 315 316 316 315 316 316 317 316 316 317 317 317 318 318 316 316 318 318 319 321 322 325
315 315 314 313 312 312 312 312 312 312 313 314 314 312 312 311 308 307 306 305 306 305 305 305 305 307 307 313 316 314 315 316 317 315 311 312 311 312 313 314 314 313 315 315 314 315 315 314 314 315 315 315 315 315 316 315 314 316 316 315 315 316 315 314 314 314 315 315 315 316 316 317 317 316 316 318 317 318 317 317 316 316 316 318 320 321 322 323
315 314 314 312 311 312 311 312 312 312 313 314 313 312 312 312 309 307 306 305 306 305 306 305 306 307 307 315 320 315 314 317 316 313 311 312 312 313 315 316 315 315 316 315 314 314 314 315 314 316 316 315 315 315 315 315 315 315 316 316 316 316 314 314 314 314 315 314 315 316 316 317 316 315 316 317 316 317 318 318 318 318 316 316 319 321 322 322
315 314 313 312 310 311 311 311 311 311 312 313 312 311 312 312 310 307 306 306 306 306 306 306 307 308 309 314 316 314 316 316 315 314 311 312 313 313 316 316 316 316 316 314 314 314 315 316 316 317 316 316 316 315 316 316 316 316 316 316 316 316 315 315 315 314 315 315 314 315 316 317 316 315 315 317 318 318 319 318 317 318 317 316 317 319 319 319
315 313 313 312 310 310 310 311 310 310 311 312 312 311 312 312 310 307 306 306 306 307 306 307 307 308 314 315 312 314 316 315 315 313 311 312 313 315 316 315 315 317 316 315 316 315 316 317 316 316 316 316 315 316 317 316 316 316 317 317 316 316 316 316 315 315 315 315 314 315 316 316 316 316 316 318 319 318 318 318 317 318 318 317 317 317 317 317
314 313 313 312 311 309 309 310 310 310 311 311 311 311 312 311 308 306 306 306 306 307 307 308 307 309 316 315 312 316 316 314 314 312 311 312 313 315 316 314 315 316 316 316 316 315 315 316 316 315 315 316 315 315 316 316 316 316 316 316 316 317 316 316 316 316 315 315 315 315 317 317 317 318 317 318 319 317 318 318 317 318 318 318 318 319 318 317
313 313 313 312 311 309 309 310 310 310 310 311 311 311 311 309 308 306 306 306 306 307 308 308 308 311 315 314 314 317 315 314 312 311 312 313 314 316 315 314 315 315 316 316 314 314 314 315 316 317 316 316 315 315 316 316 316 316 316 317 317 316 316 316 317 316 315 316 316 315 317 319 318 318 318 319 319 318 318 318 318 319 319 319 319 320 321 319
313 313 312 311 310 309 309 310 310 310 310 311 311 311 310 309 307 306 305 306 306 307 309 309 309 313 314 312 315 316 314 313 312 312 313 314 316 315 315 315 314 314 314 314 314 314 315 316 316 316 316 317 316 315 316 316 315 316 316 317 319 317 316 317 317 317 315 316 317 315 316 319 318 319 319 319 319 318 319 318 318 319 319 320 321 321 322 321
312 312 311 311 310 309 309 310 310 310 310 311 311 311 309 308 307 307 305 306 307 309 310 309 311 315 312 311 315 315 313 312 313 314 313 315 317 315 315 314 314 315 314 314 314 315 316 316 316 316 315 315 317 317 317 316 316 317 316 316 318 317 317 319 317 317 317 316 316 316 317 318 318 319 319 318 318 317 318 318 318 319 319 320 322 322 322 321
312 312 311 310 310 310 310 310 310 311 311 311 311 310 308 308 308 307 306 307 309 309 311 314 314 313 311 312 316 315 313 315 315 314 313 316 318 316 315 314 315 315 314 315 315 316 316 316 318 318 317 315 317 319 318 316 316 318 316 316 318 317 317 318 317 317 317 316 316 317 317 317 317 319 319 318 317 317 318 318 318 319 319 320 322 321 322 321
312 311 310 310 310 310 310 310 310 310 310 311 310 309 309 309 309 308 308 309 311 309 312 316 313 310 310 312 314 314 315 317 315 313 314 317 317 316 316 316 316 316 316 317 316 317 316 316 318 318 316 315 317 318 319 317 316 318 317 316 318 318 316 316 316 317 317 317 316 317 317 317 317 317 318 318 318 319 320 318 318 319 320 321 323 322 322 321
311 310 310 310 311 311 311 311 310 310 310 310 310 310 311 311 311 312 312 311 312 310 310 312 310 310 310 309 313 315 317 317 315 313 314 315 315 315 316 315 316 316 317 316 316 317 317 316 317 317 316 316 317 318 319 318 317 317 317 315 316 317 315 315 316 317 317 317 316 317 317 317 317 316 317 318 319 320 320 319 319 319 319 320 322 322 322 322
311 311 310 310 311 311 311 311 310 310 310 310 311 312 312 313 314 316 316 313 312 309 308 311 311 311 311 311 315 317 317 316 314 313 313 314 315 316 316 315 316 316 315 316 316 316 318 318 318 321 319 316 316 318 318 318 316 316 318 317 315 315 314 315 316 316 317 317 317 317 316 316 317 317 318 318 319 319 319 319 319 319 320 319 320 321 321 323
311 311 311 310 310 311 311 310 309 310 311 312 314 314 314 315 314 314 314 313 311 310 311 312 310 311 315 316 316 315 315 314 314 314 314 314 315 315 315 315 317 317 316 318 318 316 318 320 321 323 320 317 316 317 317 316 315 315 316 317 316 315 315 316 317 316 316 316 316 317 317 316 317 317 317 318 319 319 319 319 319 320 321 321 321 321 321 322
311 312 311 310 310 311 310 310 310 310 312 314 317 319 315 312 312 312 312 311 311 312 312 313 312 314 316 315 313 314 314 314 315 315 314 314 315 315 314 315 315 315 316 318 318 315 317 321 322 321 318 317 316 316 316 315 314 315 316 316 316 317 316 317 317 315 315 317 316 317 316 316 317 316 318 319 318 318 318 317 318 318 319 322 322 322 322 321
312 312 312 310 310 311 311 311 311 310 312 314 316 321 318 312 312 313 313 310 310 313 312 312 313 314 316 314 314 316 316 314 315 316 315 314 315 315 314 315 314 314 317 318 318 317 318 320 319 317 317 317 317 316 315 315 317 317 317 318 319 320 318 317 317 315 315 316 317 317 317 316 316 316 317 318 318 317 317 317 318 319 320 322 322 322 324 323
313 313 312 311 311 311 311 312 311 310 311 315 317 319 318 312 310 312 314 313 312 314 312 311 312 313 314 314 315 316 316 314 315 316 315 314 315 315 314 314 313 314 317 317 318 319 319 318 316 317 317 317 316 315 315 316 317 319 318 318 319 322 319 315 315 317 315 315 317 318 318 317 316 317 316 316 317 316 317 317 318 322 323 323 323 323 326 325
314 313 313 312 311 312 312 311 312 311 312 315 317 318 316 312 309 312 317 315 312 314 312 311 313 314 314 314 314 316 315 314 316 316 314 314 315 314 314 313 313 315 316 315 316 318 317 316 316 317 316 316 316 315 316 316 316 320 322 319 319 320 319 317 317 319 317 317 321 320 320 322 321 321 321 319 319 317 317 319 319 324 325 325 324 325 328 328
315 314 314 312 311 312 312 312 312 312 313 315 316 317 315 312 310 311 316 315 312 315 314 312 313 313 314 314 314 315 314 314 316 315 313 315 315 314 315 314 313 314 315 316 315 315 316 316 317 317 316 317 317 316 319 319 316 318 323 324 320 318 319 321 322 321 317 317 321 320 322 326 324 324 325 323 322 321 321 321 321 322 323 324 325 326 328 329
315 314 314 312 312 312 311 312 313 313 314 315 315 315 313 311 311 312 314 314 313 313 312 311 311 311 313 315 314 315 313 313 315 314 313 315 314 313 314 314 314 314 315 316 316 316 316 316 318 320 320 321 320 318 321 322 316 314 322 326 322 321 324 323 322 322 318 317 320 319 320 322 318 316 320 319 321 323 323 324 324 322 321 323 325 326 327 329
315 314 314 312 312 312 311 313 314 313 314 314 314 313 311 310 311 312 314 315 315 314 312 311 310 310 313 314 313 312 312 314 315 314 314 314 313 313 314 314 314 314 315 317 319 318 316 318 321 322 323 325 321 318 320 321 317 318 324 326 322 322 324 323 322 321 320 321 322 321 320 321 319 316 316 316 316 319 321 322 323 322 322 324 327 329 330 331
316 315 313 312 312 312 312 314 314 313 312 313 314 313 310 310 311 312 313 315 318 315 313 311 309 311 314 313 312 311 311 314 315 314 313 313 313 313 313 313 313 314 316 317 319 319 318 320 324 323 322 324 321 323 326 321 319 323 325 324 323 325 324 323 322 321 323 323 323 325 322 322 323 319 317 318 315 317 319 319 320 320 323 327 329 330 332 331
316 316 314 313 312 312 312 314 314 314 313 312 312 312 310 310 313 314 313 315 318 313 312 312 310 313 314 312 313 311 311 313 315 315 313 312 314 313 312 314 313 314 315 315 318 321 320 317 320 322 322 321 320 323 329 325 321 324 325 324 324 325 324 323 321 322 324 320 321 328 325 319 317 313 315 319 315 317 319 318 320 319 326 335 335 333 330 329
317 316 315 314 313 312 312 313 313 314 314 311 310 310 311 313 313 313 313 314 317 315 310 310 311 314 313 312 313 311 312 314 314 313 313 312 313 312 313 314 314 317 317 317 320 319 315 313 316 320 318 318 318 319 324 326 323 324 325 325 324 323 324 324 322 322 322 320 321 328 326 316 313 314 318 320 317 319 319 317 318 321 332 339 336 333 329 327
318 317 316 314 315 313 313 314 313 313 313 310 310 311 313 316 314 311 312 313 316 316 311 310 312 314 313 313 313 311 312 314 313 313 313 314 314 313 314 314 316 321 321 321 321 318 317 316 318 318 315 316 318 318 321 323 323 325 324 322 321 321 324 323 322 323 323 321 322 326 325 317 314 316 320 321 319 320 318 317 317 321 334 340 334 329 325 325
318 318 317 315 315 314 314 316 316 315 311 309 313 315 314 314 313 313 313 311 314 317 313 313 314 312 312 313 313 311 313 315 314 313 315 315 315 313 314 315 317 321 321 320 321 321 322 321 320 318 316 316 319 321 321 319 322 326 323 321 320 320 324 325 326 329 326 321 322 326 324 319 315 315 318 320 319 319 319 320 320 320 329 340 338 328 324 325
317 318 317 316 315 314 315 316 317 315 311 311 315 317 316 312 311 314 313 311 315 318 316 315 314 313 313 314 314 313 314 316 314 314 316 316 316 315 315 316 316 318 319 318 321 322 322 323 322 318 316 317 319 321 320 319 321 323 321 323 323 319 321 323 324 327 327 323 323 323 323 322 317 316 318 318 317 320 321 321 325 325 324 333 340 334 328 326
316 317 317 317 316 315 315 316 316 313 310 314 316 316 316 313 310 312 312 312 317 319 316 315 315 314 313 314 315 313 315 317 315 315 317 318 317 317 316 316 315 315 316 316 320 321 320 323 322 318 318 319 319 319 319 320 320 320 319 321 323 320 317 319 320 323 326 324 321 320 323 325 320 318 322 323 321 322 322 321 324 329 328 328 336 339 334 327
315 316 317 316 316 316 316 316 316 312 311 315 314 312 314 312 311 312 311 314 318 318 317 316 316 315 315 317 316 314 316 319 316 316 319 318 317 317 316 315 314 315 315 314 318 320 317 320 322 319 318 317 318 321 320 319 318 318 319 319 323 323 316 317 321 321 322 321 321 323 325 325 320 317 321 322 322 323 324 323 322 326 329 327 329 335 335 330
313 315 316 316 316 316 316 315 315 312 313 315 312 311 312 310 311 312 312 316 318 318 317 316 317 316 316 319 319 316 318 321 319 318 320 319 317 318 317 316 315 314 315 314 317 321 319 321 323 320 317 316 319 323 321 321 319 319 322 322 324 324 317 318 322 320 319 318 319 321 320 318 315 315 318 317 317 320 322 324 322 324 328 327 327 330 331 331
313 314 315 316 316 316 315 315 314 311 312 315 312 311 311 310 311 312 315 318 317 316 317 317 318 317 316 319 319 318 318 320 319 318 319 319 318 318 317 318 316 314 315 313 315 321 321 322 321 320 318 318 319 321 322 325 322 322 325 323 321 323 320 318 319 320 321 319 318 317 314 314 313 315 319 317 316 317 319 322 322 324 327 326 326 327 326 329
313 313 314 315 316 316 316 315 314 311 312 314 314 312 312 311 311 313 316 317 316 317 317 317 319 318 317 318 318 318 318 319 319 318 319 318 318 318 317 318 318 315 315 314 315 320 319 318 319 318 318 318 316 317 320 322 320 321 324 321 320 323 324 320 317 318 320 318 317 317 315 314 314 314 316 318 320 320 318 320 322 323 324 323 324 325 323 328
312 313 315 315 312 313 315 315 313 312 313 314 314 314 314 312 313 315 317 317 316 316 316 317 319 318 318 318 317 317 316 316 318 318 318 317 317 319 316 316 320 317 315 315 315 318 318 317 319 317 316 317 317 317 320 320 319 319 320 320 321 323 324 323 319 318 319 317 316 317 316 315 315 315 315 317 320 321 318 318 320 320 322 323 323 323 326 332
312 313 316 315 312 311 314 314 313 312 312 313 312 314 317 318 319 320 320 320 319 317 316 316 318 318 318 319 318 317 316 316 318 317 317 317 317 318 316 316 320 319 316 316 316 318 318 315 318 317 315 318 319 317 317 318 319 319 319 321 322 321 321 324 322 319 320 319 317 318 317 315 315 317 318 318 319 320 319 319 321 323 324 324 324 327 336 339
311 313 315 314 314 313 313 314 313 310 310 312 310 311 316 318 319 320 320 321 323 322 319 318 318 317 318 319 318 317 316 316 318 318 316 316 316 317 317 316 318 319 319 318 317 318 317 314 319 320 318 319 319 317 317 318 318 316 316 317 319 319 320 321 321 319 320 321 319 320 318 315 316 318 317 318 321 321 321 322 326 329 327 326 328 334 342 341
310 312 313 314 314 314 314 315 311 306 308 311 310 309 311 313 316 319 320 320 321 321 320 322 322 319 318 319 318 319 318 316 318 319 317 316 316 317 318 317 317 318 318 317 317 316 315 315 318 321 320 320 319 319 321 323 321 318 318 317 316 317 318 320 321 322 324 322 319 321 320 316 319 325 322 324 329 327 326 327 329 330 329 330 334 337 337 337
309 311 312 313 314 313 314 315 309 306 308 309 308 309 309 310 314 317 319 319 321 321 321 322 323 322 320 320 318 318 318 316 318 319 318 317 316 317 320 318 317 318 316 317 318 316 315 316 318 318 319 321 320 319 320 320 320 321 322 321 319 317 318 319 322 325 327 325 321 321 321 316 322 333 330 329 333 329 326 329 328 327 330 334 337 336 334 333
307 309 310 312 314 313 314 315 311 309 309 308 308 309 309 309 311 314 316 318 319 321 321 320 322 323 324 324 322 320 318 316 318 319 318 319 319 322 324 321 319 318 316 317 318 317 317 318 320 318 318 321 322 321 320 319 319 320 321 322 321 321 321 320 320 321 323 324 323 323 320 316 323 335 329 324 327 325 324 327 326 327 333 336 335 334 333 332
306 307 309 312 313 312 313 315 313 311 309 309 309 309 310 310 310 311 314 316 316 319 321 321 322 324 325 325 324 324 321 317 318 319 318 319 323 326 326 325 321 316 320 323 317 316 318 318 318 318 317 319 320 322 324 322 320 319 320 322 322 323 324 322 321 322 320 320 320 321 319 315 320 327 323 321 324 323 323 325 324 325 331 332 332 334 334 332
305 305 307 310 312 312 313 314 314 312 310 310 310 310 310 311 310 310 312 314 315 317 319 320 320 321 323 323 322 322 322 321 320 321 320 320 325 325 324 328 324 319 326 327 318 318 323 319 315 316 317 316 316 322 325 322 320 319 320 321 320 321 323 322 322 322 319 318 318 318 318 316 316 319 320 322 325 324 323 323 323 324 326 327 328 333 334 332
305 304 306 308 310 311 312 313 314 314 312 311 311 311 310 311 312 312 312 313 315 316 316 317 318 319 321 322 322 322 322 322 322 321 320 322 325 322 320 325 325 322 324 321 318 323 326 321 317 316 317 315 316 324 325 320 319 319 318 319 319 320 321 322 322 320 318 319 319 317 318 319 317 315 317 321 323 324 324 323 324 325 325 325 326 328 329 330
305 305 305 307 308 309 311 312 313 314 314 312 312 312 312 311 312 314 313 313 314 316 316 316 316 317 319 320 321 322 321 321 321 320 320 323 324 321 319 321 320 320 320 319 321 325 324 321 320 319 318 317 317 322 324 321 320 319 318 318 318 319 320 321 320 319 318 319 318 317 318 319 317 314 316 318 319 321 322 321 323 323 323 326 326 327 330 331
303 304 304 305 307 308 309 311 312 313 313 313 313 313 313 312 312 314 314 313 314 315 316 315 315 315 316 318 320 321 320 320 321 319 318 322 323 322 322 322 319 319 320 320 321 322 320 319 319 318 319 320 318 320 321 322 321 320 320 319 318 318 319 319 319 318 318 319 318 317 318 318 316 315 316 319 320 321 321 321 321 321 323 328 330 329 331 330
302 303 305 307 308 308 309 310 312 313 313 313 313 313 313 313 313 313 314 313 313 314 315 315 315 315 315 316 318 320 319 319 321 320 319 320 321 320 321 322 320 319 318 317 318 317 316 319 320 318 318 319 319 319 320 321 321 321 322 322 320 319 318 318 318 318 318 319 318 318 319 317 316 315 316 318 320 321 320 320 319 319 322 327 328 328 328 327
302 303 304 307 307 307 308 310 311 313 313 312 312 313 313 314 314 314 315 314 313 314 315 315 315 315 316 316 317 319 319 319 320 320 320 321 321 321 321 321 321 320 316 314 317 316 315 319 322 320 318 318 318 318 319 319 321 322 322 321 321 320 319 319 319 318 318 318 318 319 319 317 316 315 316 317 318 319 319 318 318 319 321 324 325 325 324 323
302 302 303 305 307 307 307 309 310 311 312 312 312 312 313 314 314 314 315 315 314 314 315 314 314 315 317 317 317 317 317 318 318 319 320 321 321 321 321 320 321 322 318 314 316 316 315 317 318 318 318 319 318 320 320 319 321 321 320 319 319 319 320 321 320 320 318 318 318 319 318 316 315 316 317 317 318 318 318 318 318 319 321 324 324 323 321 321
Wind_Speed
12 12 11 9 7 7 6 5 5 4 4 4 5 6 6 7 6 7 7 7 7 8 9 9 9 8 8 7 7 6 6 4 3 5 7 5 3 7 9 7 6 6 6 5 3 2 3 5 4 4 4 3 0 1 1 0 0 0 1 2 4 3 2 1 3 3 4 7 5 6 7 6 6 3 2 2 1 2 4 3 4 6 7 9 12 14 15 16
12 11 11 9 8 7 6 5 5 4 4 3 5 5 6 6 6 7 7 7 7 8 9 9 9 9 8 7 6 5 6 4 5 7 8 6 5 8 8 7 6 6 6 5 4 5 5 3 5 5 4 2 1 0 1 0 1 1 1 3 3 1 2 4 6 5 3 5 7 7 7 4 6 6 3 2 4 5 4 4 6 6 7 9 12 14 14 15
12 10 9 9 8 8 7 6 5 4 4 4 5 5 5 6 6 7 7 8 8 8 8 9 9 9 8 7 6 5 4 3 4 5 8 8 8 8 7 7 6 6 6 4 3 6 6 5 3 5 3 2 1 0 1 1 1 0 0 1 1 2 4 7 8 6 5 3 7 7 3 2 5 5 4 3 5 7 7 6 7 7 7 9 10 14 16 14
11 10 10 9 8 8 7 6 5 4 4 3 4 4 5 5 6 7 7 8 8 8 9 9 9 8 8 6 6 5 2 2 2 4 10 10 9 8 7 7 6 5 5 3 1 4 6 6 3 4 3 2 1 1 2 1 1 0 1 0 2 2 3 6 7 6 5 4 3 7 2 2 4 3 4 4 3 5 6 6 7 8 11 12 10 13 16 16
13 11 11 9 8 8 7 6 5 5 3 3 4 4 5 5 6 7 7 8 8 9 9 9 9 8 7 6 5 3 1 1 1 5 11 11 10 9 7 6 5 4 4 3 1 3 5 6 3 2 3 1 4 2 3 3 1 0 2 3 4 4 3 4 5 5 4 4 2 7 3 2 4 2 4 5 3 3 2 2 2 2 7 14 12 13 14 14
14 13 11 10 9 8 7 6 5 5 4 3 4 4 5 5 6 7 7 7 8 9 9 9 8 7 6 5 4 3 2 1 1 3 10 12 10 8 7 6 5 4 4 1 3 3 3 5 3 2 3 2 5 4 2 4 2 1 2 4 5 5 3 2 3 3 6 2 3 3 1 3 4 2 4 6 6 3 5 7 7 8 9 17 16 14 12 11
15 14 12 12 11 9 8 7 6 6 5 4 4 4 5 5 6 6 7 7 8 9 9 9 8 7 5 3 3 2 3 1 2 4 9 11 9 8 6 5 4 3 3 2 5 4 4 4 4 3 3 2 5 4 2 3 3 0 1 4 4 5 5 3 3 1 5 4 3 2 1 1 3 2 0 4 7 3 5 8 8 9 12 16 14 11 11 12
15 14 13 14 13 10 9 8 7 6 6 5 5 5 5 5 6 6 6 7 8 9 9 8 7 6 5 4 2 2 3 1 3 6 9 9 9 7 5 4 2 2 1 4 5 2 2 4 4 4 2 1 2 4 1 3 3 2 2 5 2 3 5 4 4 1 2 3 3 3 1 1 2 1 2 4 6 5 3 8 8 9 9 10 10 10 10 11
14 13 13 14 13 11 9 8 7 7 7 5 6 7 5 4 5 6 6 7 7 8 8 8 7 6 6 4 1 2 2 4 6 8 9 8 7 6 5 3 1 1 2 4 5 4 2 3 4 1 1 1 1 4 1 1 1 1 4 6 4 5 4 3 4 2 1 1 2 1 2 1 3 2 3 8 8 7 5 7 7 7 7 6 8 9 9 9
14 13 12 13 14 12 11 10 8 7 7 6 6 7 5 4 5 5 6 7 8 8 8 8 7 6 7 4 3 2 1 6 7 7 9 7 6 5 3 2 2 3 4 3 3 3 2 2 1 2 2 1 2 2 2 2 1 1 5 6 5 6 4 1 3 3 1 2 1 2 2 1 2 0 4 5 5 6 6 7 7 7 6 7 7 8 9 10
15 14 13 13 15 15 12 10 8 7 7 6 5 6 5 4 5 6 6 7 8 8 8 7 7 7 6 4 4 2 2 6 7 8 9 6 5 4 2 3 3 1 3 3 1 1 3 5 3 2 2 2 4 2 3 0 2 1 5 7 5 5 4 3 3 4 2 1 1 2 4 2 4 2 7 4 2 5 7 6 7 6 6 7 7 7 8 10
15 15 15 14 16 16 13 10 9 8 7 6 5 6 6 5 6 6 6 7 8 8 8 7 8 7 4 3 3 2 4 7 8 10 8 5 4 4 3 2 3 1 4 1 3 1 2 3 4 1 1 0 4 3 2 3 1 3 3 3 5 5 4 6 5 4 4 1 2 1 4 6 6 8 11 6 5 5 6 6 6 6 6 6 7 7 7 9
16 16 16 15 14 14 13 11 9 9 8 6 6 6 6 5 6 6 7 8 8 8 7 7 7 6 2 2 2 3 6 8 9 9 7 5 4 4 3 2 2 1 2 3 6 4 4 3 3 2 2 2 2 2 2 2 1 2 3 0 4 3 4 7 5 4 3 1 2 2 1 6 6 11 8 7 8 6 5 6 6 6 6 6 7 6 6 9
16 16 15 14 13 12 12 10 10 9 8 6 5 6 6 6 6 7 7 8 8 7 7 7 6 5 1 0 2 2 6 11 9 8 8 6 5 5 5 4 4 3 3 6 7 5 5 3 2 3 2 3 3 2 1 2 0 2 2 1 2 2 2 5 5 6 4 0 2 3 1 7 4 2 2 5 6 7 6 7 6 6 6 7 7 7 6 8
16 15 14 14 12 12 11 10 9 8 7 6 6 6 6 6 6 6 7 8 7 6 6 6 6 4 1 1 1 3 8 11 8 7 9 8 5 5 6 6 7 6 7 9 8 7 5 3 2 3 2 2 2 3 3 3 2 2 2 2 3 2 1 2 2 5 3 1 3 3 2 7 4 2 3 3 4 4 6 6 6 7 7 7 7 7 6 7
15 14 14 14 13 12 11 10 9 8 7 6 6 6 6 5 4 5 6 7 6 7 6 4 7 5 2 1 4 5 6 6 7 9 10 9 5 6 8 8 8 7 6 8 8 6 4 3 1 0 1 1 2 3 4 3 2 2 3 3 3 3 3 2 2 0 3 2 3 4 3 5 3 4 5 4 5 5 5 6 7 7 7 7 6 7 7 7
14 14 13 14 13 12 10 9 8 8 7 7 6 6 6 4 5 5 5 7 6 7 5 1 6 6 1 2 4 4 5 5 8 10 11 9 7 9 9 6 5 4 5 4 3 3 2 2 1 1 1 1 3 3 3 2 3 3 4 3 2 2 3 3 1 1 3 1 2 5 4 6 7 5 4 5 6 7 6 7 8 7 7 7 6 7 7 8
13 13 13 14 13 11 10 8 8 7 7 6 6 6 7 6 7 7 7 9 7 5 1 4 3 4 2 3 4 4 8 10 10 10 11 9 8 9 5 3 4 5 4 2 0 0 1 1 1 0 1 2 4 4 4 3 2 3 4 4 3 2 4 2 1 3 4 1 2 5 6 8 11 10 7 7 7 8 8 9 8 7 8 7 7 7 7 8
13 13 14 14 14 12 10 9 8 7 7 7 9 10 9 8 6 5 4 6 5 2 1 3 5 2 1 5 4 7 10 13 11 8 9 8 7 6 3 3 5 3 3 2 1 1 1 2 1 0 3 4 4 4 4 1 3 2 1 1 2 2 2 2 4 2 3 2 4 6 7 8 10 10 10 8 8 8 9 9 7 8 8 8 7 7 7 9
13 13 12 13 14 12 9 9 7 7 9 10 9 8 6 5 3 2 4 5 4 0 2 3 6 1 3 5 6 10 12 10 6 5 8 8 7 6 4 4 2 1 2 3 3 1 2 2 2 3 4 5 7 7 2 4 5 3 3 2 2 2 2 3 4 1 2 1 5 7 7 9 9 9 9 8 8 8 9 9 8 8 8 8 8 8 9 9
12 12 11 12 13 12 8 7 7 8 11 11 8 3 2 5 3 3 5 4 7 0 5 2 2 2 4 8 10 10 7 3 2 4 8 9 6 5 4 4 3 1 4 3 4 1 2 1 4 6 3 1 2 3 4 4 4 3 2 3 3 1 1 4 4 1 4 3 4 6 7 10 9 8 8 8 9 11 11 10 10 10 9 8 9 10 10 8
12 11 11 11 12 11 8 6 6 9 11 9 6 5 2 1 2 3 4 3 6 3 3 1 2 3 5 7 9 6 1 3 4 4 7 8 5 4 4 4 4 4 3 4 4 2 2 3 6 5 3 6 6 5 6 4 3 3 1 1 2 2 1 4 3 1 2 1 4 6 7 10 11 9 9 10 10 12 13 11 10 10 9 8 8 9 9 8
13 11 11 10 10 10 7 5 5 7 10 8 6 5 3 2 3 5 3 1 3 3 2 3 3 4 4 2 5 5 2 5 5 4 9 9 4 2 4 6 5 5 5 5 4 3 3 4 5 2 6 6 4 4 4 2 1 1 2 1 1 2 1 1 1 1 3 2 3 6 6 9 12 10 10 13 13 13 13 11 8 8 9 9 9 8 8 9
15 12 12 11 10 9 7 5 4 6 10 10 9 7 4 3 3 5 2 1 2 2 1 2 1 3 4 2 6 6 1 3 4 6 12 10 5 2 3 6 7 5 5 7 7 6 3 1 1 5 5 3 4 3 3 2 2 4 4 3 3 2 1 2 2 1 4 0 3 6 6 6 8 7 8 8 9 11 11 9 8 9 9 9 8 8 8 8
15 13 13 12 10 9 7 4 4 6 8 8 11 11 8 5 2 4 2 1 3 1 2 1 0 2 5 5 6 4 1 1 2 6 15 10 4 3 3 4 5 5 7 8 7 6 3 1 1 5 4 2 4 3 4 4 2 3 4 3 4 4 3 5 4 3 2 2 1 2 4 5 4 4 6 3 3 6 6 7 9 10 10 9 8 8 8 8
15 14 14 13 11 11 8 3 5 6 5 6 8 10 11 7 2 3 2 1 3 2 1 4 3 5 8 6 5 2 2 1 4 6 14 6 1 2 2 2 1 3 6 6 4 2 2 1 1 6 6 4 3 2 4 6 1 2 3 3 2 2 5 5 4 3 1 3 3 2 1 6 5 5 9 7 6 8 5 7 10 10 9 8 8 8 8 7
17 16 16 15 14 14 8 0 5 8 3 4 7 10 11 8 2 2 2 1 3 4 4 2 1 6 9 7 8 4 2 3 3 4 5 2 1 2 1 4 3 1 3 2 2 0 3 3 2 4 5 5 4 2 3 7 3 2 3 4 2 5 6 3 3 1 2 3 3 5 4 5 7 7 10 11 11 10 7 8 9 9 9 9 8 7 7 6
19 18 18 17 17 16 7 3 7 8 2 2 7 10 9 6 3 1 2 1 2 4 4 1 1 4 6 7 9 4 2 5 4 1 2 1 2 2 1 4 4 5 2 3 4 1 2 5 5 5 4 4 4 1 2 6 4 2 3 2 3 6 4 3 3 1 2 4 4 5 5 2 7 6 7 10 10 8 9 9 9 10 9 7 5 5 6 6
19 19 20 18 17 14 5 1 5 6 5 3 5 9 7 5 3 0 1 3 2 3 2 2 3 4 6 6 7 5 3 2 1 1 1 2 1 1 1 2 3 6 5 4 4 2 2 3 3 4 4 3 3 3 3 2 4 3 4 3 6 5 4 3 2 2 3 3 4 6 6 2 8 7 5 7 7 7 8 8 9 9 6 5 6 7 6 6
20 20 21 20 17 15 8 5 8 8 7 7 5 7 7 3 2 2 3 3 2 2 1 1 3 6 9 8 5 5 4 2 2 3 2 2 1 2 1 1 2 2 3 2 1 2 1 1 1 1 2 3 5 4 5 3 4 4 4 4 5 3 4 4 1 3 3 4 3 8 11 4 5 7 3 5 6 8 7 7 8 5 5 6 6 7 6 5
23 22 23 23 19 17 10 5 10 11 8 7 4 8 6 1 1 4 4 1 0 2 2 2 4 9 12 11 6 5 5 4 4 6 3 2 2 1 1 1 1 3 2 1 1 2 2 1 1 1 1 2 6 4 5 5 3 3 3 4 3 2 4 4 2 4 1 5 2 5 10 7 5 5 3 2 5 9 9 7 7 5 6 5 5 6 6 6
24 25 25 25 22 19 12 1 5 9 7 6 7 5 3 2 1 5 3 2 1 4 5 5 7 10 12 10 7 7 7 5 6 7 6 5 4 4 5 5 4 3 0 3 1 1 1 2 3 2 3 1 5 4 4 5 3 1 3 5 4 1 2 1 1 1 3 5 4 3 2 5 9 6 2 1 3 6 7 6 3 3 3 5 6 6 6 6
19 25 28 28 25 23 17 5 1 5 9 9 6 1 1 4 5 6 6 3 1 3 6 8 9 10 11 9 6 8 6 5 7 7 5 6 5 6 7 7 8 5 2 5 4 1 0 1 3 4 3 2 4 4 3 1 2 4 5 6 5 3 2 3 3 2 4 4 4 4 2 3 8 6 5 6 7 8 8 6 2 2 3 6 7 7 6 6
11 21 28 30 29 26 22 14 4 6 12 9 4 2 3 5 6 8 10 6 2 1 4 9 10 10 11 8 7 9 5 3 8 7 5 6 4 5 7 7 10 6 1 3 4 5 4 4 4 6 3 5 7 5 6 6 5 6 5 4 5 5 4 4 3 3 4 2 3 3 1 3 3 3 5 2 2 5 6 6 5 5 7 5 5 7 7 7
6 15 24 27 29 27 26 22 11 10 15 8 3 5 7 7 6 8 9 5 3 2 4 8 10 9 8 4 4 7 2 2 8 7 5 7 6 6 7 7 10 8 3 4 3 5 6 5 3 4 4 11 10 6 6 7 3 4 2 2 5 4 3 2 2 3 2 1 2 2 3 5 3 6 7 2 4 5 6 8 7 7 8 4 4 6 6 7
4 9 16 22 25 27 29 25 17 14 12 6 5 7 8 9 6 6 5 4 4 6 8 7 6 6 7 3 2 4 0 2 8 6 3 6 5 6 7 7 11 11 8 6 2 3 4 3 1 2 3 9 6 3 3 4 2 3 2 4 4 1 2 2 2 1 4 2 4 3 5 6 3 8 11 10 11 9 7 8 8 8 7 6 7 8 7 7
5 6 9 15 20 23 28 27 19 15 7 2 8 10 8 9 5 2 3 6 8 11 10 6 4 5 7 4 3 6 3 2 7 5 3 4 4 7 10 6 9 13 12 8 3 2 5 2 3 1 2 2 2 2 1 3 2 4 4 5 1 3 1 2 1 2 1 5 4 3 7 7 4 6 5 5 9 10 8 8 8 8 8 8 9 8 8 8
5 6 4 12 19 19 24 27 19 13 5 0 9 12 8 8 7 3 2 7 11 11 8 6 4 5 7 6 5 8 7 5 7 6 5 5 4 8 12 7 7 14 14 10 4 2 4 3 3 2 1 2 3 1 1 3 3 4 2 2 2 1 2 2 2 3 3 5 5 4 7 6 7 8 5 2 6 8 9 9 9 9 9 9 9 10 9 6
3 4 2 11 20 17 21 24 15 7 5 6 11 11 6 7 7 4 2 3 9 9 7 7 5 4 7 7 7 9 9 8 9 7 5 5 4 7 13 9 7 12 14 12 7 1 3 4 3 3 4 1 2 1 5 2 3 3 3 2 1 3 3 4 3 3 3 4 5 6 6 6 7 7 6 8 9 10 10 10 10 10 9 9 8 9 8 6
1 1 1 8 21 21 20 19 10 4 4 7 8 5 2 2 3 2 3 1 4 5 6 8 8 6 7 7 7 8 8 7 9 7 5 6 5 5 10 10 7 8 11 11 7 2 2 3 3 2 5 1 2 5 8 7 5 2 1 2 2 1 2 1 1 2 3 3 3 4 7 9 6 5 7 10 9 10 12 10 9 9 9 9 9 8 7 6
1 2 1 6 19 25 19 11 4 3 3 3 4 3 3 3 2 3 2 4 1 1 1 5 7 7 6 6 6 7 7 6 7 6 5 7 7 5 7 11 9 8 8 7 7 5 3 4 4 2 1 3 6 6 8 9 10 9 7 8 9 6 4 2 4 3 2 2 4 3 7 12 5 4 5 4 2 6 10 10 8 8 9 9 8 7 6 6
2 3 1 8 22 26 17 5 1 3 2 3 3 1 3 5 3 3 3 4 2 2 2 1 3 5 7 8 7 7 7 5 7 7 6 9 11 7 7 11 12 12 10 7 9 9 5 3 4 4 4 5 3 2 4 4 4 5 6 6 7 7 6 5 5 4 2 2 4 2 6 13 4 5 3 3 4 2 5 8 8 7 8 8 7 5 5 5
3 3 2 9 24 23 11 5 4 3 1 3 2 2 3 4 4 3 4 2 1 1 1 1 1 2 5 6 7 9 9 6 8 10 7 9 11 8 8 11 13 13 9 6 6 5 2 2 3 3 1 1 3 2 1 2 2 2 4 2 3 5 6 6 5 4 3 4 5 3 7 12 4 5 3 3 5 5 3 3 5 4 4 6 6 5 6 5
3 3 1 9 23 20 8 5 5 4 3 4 4 5 4 3 5 4 3 1 1 1 0 1 1 1 1 1 3 8 11 8 9 11 9 7 6 5 9 13 13 11 8 6 6 5 3 4 4 3 2 1 2 2 3 2 1 2 3 3 4 5 5 4 3 1 2 7 9 6 7 12 4 5 4 2 3 3 4 4 3 3 5 6 5 4 5 6
2 3 0 6 16 15 6 3 3 4 6 6 5 6 6 4 6 8 6 2 1 1 0 1 1 2 2 2 3 1 7 9 8 8 9 8 3 1 4 11 13 11 6 7 10 8 5 6 6 6 6 7 6 4 4 3 2 2 4 6 8 8 8 6 3 3 6 11 11 7 8 14 7 4 5 2 2 6 7 6 4 4 6 5 3 4 6 6
2 3 2 3 6 7 4 2 2 4 6 7 4 6 8 6 4 8 9 5 3 2 1 1 1 2 1 2 2 1 3 6 5 5 7 8 3 2 2 3 8 9 6 7 10 7 3 4 8 10 11 11 9 5 6 9 7 6 10 10 10 11 11 8 4 6 10 10 9 10 11 17 16 6 2 5 5 6 7 6 5 5 6 6 6 6 6 6
3 4 4 3 3 4 4 4 6 5 6 8 6 5 10 10 5 5 8 8 6 5 3 2 1 1 1 3 6 4 2 3 3 3 7 5 1 2 4 4 0 5 6 6 5 5 3 4 10 13 14 14 11 5 8 12 12 13 14 13 13 14 13 11 10 13 13 7 10 14 11 14 22 16 8 9 9 6 7 8 7 7 7 7 6 5 6 7
3 3 3 4 3 4 5 6 8 9 8 9 6 5 9 11 9 7 7 7 6 6 5 3 5 8 7 4 4 4 4 3 3 4 5 3 3 2 3 4 3 2 3 2 1 3 4 4 8 11 13 15 13 7 8 10 10 11 13 14 15 16 15 15 18 20 15 9 12 15 11 13 22 18 9 10 11 9 9 9 8 7 7 6 7 7 8 9
4 3 3 4 3 3 5 7 9 11 11 10 7 6 9 12 13 10 6 5 5 6 8 6 8 12 12 8 5 4 5 5 5 6 4 2 3 3 2 1 2 2 3 2 1 1 3 5 6 7 9 12 13 11 9 9 8 8 11 13 15 17 19 20 22 22 18 14 15 18 17 17 20 17 9 9 10 8 7 6 5 5 6 6 7 8 9 9
4 2 2 3 3 2 3 5 8 9 10 10 8 7 9 12 14 11 7 8 7 7 10 12 12 12 13 12 9 8 8 7 8 8 4 3 2 2 2 2 1 2 2 2 0 1 2 4 4 4 5 9 13 13 10 8 8 8 9 11 14 17 20 21 19 16 14 15 17 20 19 18 18 16 11 9 9 7 8 9 8 8 7 7 8 9 9 9
7 4 3 2 3 4 3 2 5 7 7 8 8 8 9 12 14 11 8 10 10 8 11 17 15 9 9 11 10 11 11 9 10 8 3 4 3 2 1 1 2 3 2 1 1 1 2 2 0 2 4 10 14 13 8 5 6 8 12 15 17 17 15 14 13 13 14 16 17 16 15 16 18 14 9 10 10 8 11 13 10 9 8 7 9 11 9 8
11 8 5 2 3 5 5 3 4 5 6 8 10 10 10 11 11 10 6 7 11 11 12 15 13 7 5 10 14 16 15 12 10 6 2 4 3 2 2 2 4 4 4 3 2 1 3 2 1 3 5 11 15 9 2 3 3 9 15 19 19 17 13 10 11 15 18 15 12 12 13 15 16 11 8 11 12 11 13 13 11 10 8 8 10 11 10 9
Wind_Direction
204 220 226 213 194 196 196 202 213 216 219 212 200 198 198 196 200 204 205 209 208 204 205 210 210 214 213 218 232 240 257 251 238 225 211 241 226 174 178 181 187 189 191 189 189 240 242 229 210 194 189 193 308 117 207 288 44 316 175 214 246 214 151 185 109 109 140 135 148 164 174 161 142 163 131 140 214 121 144 152 114 83 79 101 121 131 133 141
206 219 226 205 190 196 192 200 212 221 234 226 208 204 204 199 201 205 208 212 213 212 210 211 213 216 215 221 231 241 259 242 243 243 217 219 198 174 178 180 183 184 188 183 207 243 248 219 168 192 216 180 139 195 229 129 125 250 211 224 258 91 38 12 60 58 57 127 150 163 194 180 141 154 140 164 186 173 178 181 159 127 103 115 130 140 145 149
201 218 219 192 190 197 191 205 214 227 240 230 215 210 209 204 202 205 210 214 216 218 214 215 217 217 218 221 229 241 254 240 258 241 192 186 180 176 176 176 172 169 178 181 231 261 285 308 176 194 232 190 190 152 179 132 139 193 117 223 298 78 59 31 57 60 19 55 139 148 192 161 126 138 147 206 197 180 193 194 176 172 165 154 151 150 152 155
193 210 212 193 190 194 198 208 211 226 234 232 222 218 216 204 204 207 211 214 216 219 217 219 220 220 222 222 230 232 236 247 242 167 167 173 176 179 170 164 160 158 174 176 255 288 292 295 234 209 248 203 134 120 176 156 120 121 85 99 337 0 54 42 48 52 15 353 104 121 131 145 118 113 158 199 208 198 208 203 191 193 180 166 160 157 159 160
187 204 215 210 196 194 205 206 213 216 205 234 234 223 221 210 209 207 211 216 216 218 219 221 222 225 223 227 229 207 186 229 156 148 164 170 175 177 168 160 153 153 155 142 253 271 257 253 237 233 265 190 136 165 171 129 79 68 100 84 21 356 50 62 51 36 347 320 88 114 133 137 103 105 189 204 218 200 180 123 107 103 154 155 155 156 162 166
198 210 218 222 207 200 209 205 215 207 186 229 237 229 227 221 217 210 214 217 217 219 220 221 221 224 225 230 220 190 214 205 89 155 164 164 174 171 164 157 145 151 147 145 263 239 239 241 213 208 248 196 163 175 139 115 89 28 91 80 34 20 71 68 64 15 326 339 98 115 139 93 104 200 206 209 227 180 106 95 79 59 113 142 148 154 166 177
212 217 222 226 215 204 209 208 216 201 187 219 231 229 231 232 228 218 217 216 220 220 218 222 218 221 221 201 177 190 246 264 80 172 166 160 167 164 158 153 147 153 155 254 249 205 216 227 201 218 240 213 175 158 119 130 127 189 124 93 44 47 78 58 69 10 345 24 46 11 324 92 146 225 223 215 232 220 114 105 105 95 113 135 145 159 174 181
215 224 230 225 213 206 208 210 217 204 192 221 233 222 223 239 235 224 220 218 220 219 220 220 214 216 199 164 156 210 228 186 122 165 168 160 158 155 145 136 146 157 197 270 266 257 239 217 221 235 217 245 155 134 151 168 165 249 118 111 95 74 87 83 93 97 31 31 18 16 307 58 113 73 331 247 233 240 171 119 121 118 121 142 154 169 177 182
213 225 234 223 207 204 209 209 216 210 202 227 237 223 222 236 234 226 222 220 220 220 221 214 212 213 190 177 234 256 215 157 150 164 167 161 155 148 132 109 86 227 245 259 273 296 294 223 234 252 105 348 111 121 121 148 169 302 106 120 124 103 97 114 120 105 82 52 24 350 236 127 78 44 274 248 231 227 187 135 138 134 140 163 166 176 179 182
215 222 230 227 213 206 207 208 216 217 212 231 239 224 223 235 233 225 220 220 219 217 215 209 208 198 184 193 228 255 182 139 144 162 166 160 148 132 123 151 164 265 244 210 249 277 311 321 320 31 26 22 94 88 40 59 304 10 103 105 107 119 119 190 143 117 96 71 51 284 269 168 107 316 253 250 233 195 165 149 155 150 167 185 182 188 184 185
217 223 232 236 225 215 209 211 222 221 214 229 236 216 217 233 226 220 220 218 215 213 210 204 200 189 184 213 230 232 173 152 151 158 162 159 149 136 156 183 160 295 273 182 136 334 2 349 342 27 11 114 108 64 51 66 273 107 117 101 112 138 133 199 166 151 172 78 253 285 307 261 131 200 237 214 165 153 161 182 180 171 192 203 201 197 189 193
218 229 239 243 233 225 219 220 227 224 218 224 221 210 216 224 216 216 218 214 212 208 202 200 197 189 187 248 246 194 155 163 157 153 157 154 143 142 151 167 145 5 317 164 121 91 101 13 338 46 18 149 122 96 104 227 253 123 157 125 145 161 156 195 170 159 190 166 243 30 318 263 182 221 239 183 150 149 166 198 194 189 198 210 214 199 190 197
223 234 239 237 236 231 221 220 227 226 222 219 211 212 217 212 207 212 212 211 210 202 196 199 192 180 193 263 200 143 148 158 151 146 147 131 113 112 119 109 113 82 328 126 128 130 126 67 353 85 38 349 106 147 190 189 66 134 216 199 150 182 197 191 156 147 165 129 213 99 333 269 216 225 228 150 148 147 171 211 206 202 197 200 208 199 194 193
227 232 229 228 234 228 216 216 225 224 222 220 212 214 211 201 203 208 208 206 202 193 189 190 179 166 190 203 116 132 153 149 140 142 143 121 103 96 89 91 105 112 106 116 122 119 108 77 47 100 51 17 103 178 163 121 92 146 162 300 200 210 189 164 137 157 169 283 226 118 216 274 290 232 145 123 151 155 188 223 220 216 204 196 192 194 201 195
224 221 216 222 224 214 208 212 219 219 220 220 217 215 201 195 202 204 204 196 186 180 177 182 178 166 214 233 113 127 143 141 140 157 151 133 132 121 100 98 100 98 104 108 105 98 89 74 99 111 60 19 107 139 137 141 224 164 132 258 228 211 182 147 128 165 159 303 212 152 215 262 273 141 116 114 140 168 215 236 232 228 216 199 185 189 204 208
213 210 213 214 206 202 203 207 213 215 220 219 216 206 186 183 188 187 188 177 167 165 161 176 188 195 278 182 140 138 147 149 160 168 156 146 146 130 119 107 93 85 91 98 94 86 73 54 41 107 84 91 170 171 158 151 220 193 180 234 207 184 184 183 309 214 124 116 197 205 255 274 250 167 163 175 169 181 222 248 244 236 228 211 190 188 200 208
201 205 213 204 194 198 202 204 210 214 218 210 195 177 162 156 151 149 150 148 144 154 162 229 187 189 307 121 139 166 166 153 161 167 160 148 133 133 139 126 103 105 102 92 85 78 54 49 37 284 91 187 220 197 154 174 226 197 191 241 221 177 184 176 310 305 147 148 226 214 233 267 275 258 209 201 187 179 203 231 235 231 231 224 206 197 199 202
200 205 206 198 194 197 201 206 213 215 206 184 162 143 133 125 122 116 124 133 117 118 209 297 190 182 248 174 150 137 144 145 154 163 161 149 135 145 156 143 140 151 145 121 342 140 59 47 27 96 148 223 235 192 169 197 230 181 179 216 212 213 238 208 127 172 169 179 258 218 224 248 265 274 263 232 205 193 208 219 223 229 233 236 226 216 207 203
201 203 198 197 196 193 198 208 211 197 167 143 133 123 113 107 109 112 148 157 135 114 235 212 185 187 155 159 123 99 124 142 147 149 158 151 142 151 157 161 166 176 168 156 241 231 114 101 48 123 182 208 221 205 203 132 36 37 113 179 227 249 255 148 105 162 167 152 235 231 239 246 251 262 265 255 230 215 223 225 225 226 228 232 231 230 223 215
199 201 196 195 191 188 192 201 196 171 147 133 130 124 119 130 128 146 184 206 217 323 20 174 184 165 88 106 106 110 115 129 136 137 160 157 150 158 171 177 150 330 225 170 162 221 55 120 188 216 210 210 208 206 199 56 43 12 18 12 322 355 16 87 94 23 17 37 238 234 246 255 255 256 259 262 260 252 244 241 241 232 224 224 224 232 232 227
189 196 194 190 187 185 186 190 186 172 158 146 151 175 170 161 173 161 155 225 250 261 42 52 116 69 93 115 137 139 114 111 135 138 164 167 163 167 177 179 144 197 232 135 105 52 47 153 220 217 202 93 175 162 77 49 39 21 3 359 340 307 79 71 83 11 36 48 267 275 276 267 261 258 259 259 259 259 250 241 244 241 234 223 219 229 233 232
181 189 187 183 181 179 179 186 187 180 169 160 187 240 293 136 171 152 134 218 236 164 92 84 91 79 94 124 162 188 152 130 135 143 172 177 180 178 162 175 185 185 177 103 86 83 102 226 237 214 121 74 52 55 60 32 24 48 43 22 340 262 98 61 52 27 71 104 274 297 299 280 271 260 254 249 245 250 248 239 237 239 239 231 221 224 225 225
185 186 184 181 179 174 173 186 191 184 179 184 209 228 280 274 156 142 150 222 194 164 169 202 186 139 116 127 198 214 191 147 146 166 179 175 178 196 160 174 202 181 159 152 152 164 161 229 234 141 99 97 69 57 80 61 16 179 182 128 239 224 118 70 349 285 216 211 308 311 302 280 274 265 251 244 238 248 256 253 247 236 234 234 229 224 216 216
192 189 190 184 181 177 172 182 202 200 197 212 231 235 260 255 161 146 186 291 156 160 210 186 224 172 143 141 187 198 230 147 143 160 176 178 161 162 180 184 201 195 177 180 190 202 183 234 222 99 97 126 115 118 143 144 231 221 200 195 224 242 85 91 45 283 234 239 0 323 309 276 263 254 254 247 228 240 256 260 259 248 241 242 242 239 226 219
194 193 194 185 183 178 168 185 221 214 206 229 243 235 238 244 163 144 156 264 184 111 350 156 154 198 150 122 163 186 48 72 38 145 170 186 164 141 194 198 203 207 195 186 198 218 200 282 306 116 112 133 138 164 182 177 226 242 213 204 234 287 22 65 39 10 338 327 294 340 331 295 287 253 257 269 212 233 241 238 247 249 247 244 243 243 237 231
186 189 190 183 183 171 159 195 221 199 200 238 244 228 229 230 143 139 142 295 221 158 140 165 156 179 161 140 158 126 89 158 0 126 158 188 262 120 194 197 141 219 205 185 193 225 160 323 1 123 130 125 140 227 189 169 189 272 274 330 342 17 53 64 34 35 21 288 240 148 269 280 298 279 262 273 264 251 228 218 237 245 243 235 228 230 226 219
185 184 182 178 179 169 153 141 173 163 178 233 232 229 230 219 166 147 138 332 249 164 144 163 208 177 163 162 169 140 121 162 79 100 145 186 209 60 128 172 118 231 242 113 131 206 125 133 88 114 124 124 153 235 175 159 151 235 268 323 23 80 78 83 60 83 237 307 263 183 177 267 282 255 238 243 248 249 236 227 239 242 236 228 218 208 194 179
193 188 179 175 179 170 139 67 150 166 205 199 207 221 222 203 187 148 148 228 215 146 143 161 140 148 146 168 176 149 103 139 130 91 36 97 149 50 98 191 173 190 209 109 162 286 88 152 156 148 148 149 162 242 190 158 141 221 246 328 70 89 84 96 74 318 299 351 300 195 149 266 275 248 215 222 226 229 231 234 248 253 240 220 179 145 133 129
200 195 187 181 182 178 157 81 176 203 241 234 213 211 197 184 199 99 160 213 162 123 137 141 135 135 138 167 181 150 106 98 93 191 107 99 92 37 196 237 226 191 192 188 183 358 22 181 184 153 159 169 123 29 350 122 132 203 197 81 68 81 66 68 72 16 23 333 266 185 161 233 277 265 206 201 207 209 219 229 246 249 223 168 127 123 123 114
208 201 196 188 186 192 202 242 236 221 228 247 234 181 162 163 202 162 178 209 161 114 98 108 145 153 152 158 171 163 138 76 63 128 153 154 92 342 248 303 300 189 170 180 107 72 112 173 219 118 126 140 113 65 18 54 117 161 154 86 64 67 51 49 59 67 53 285 243 173 181 192 291 282 184 173 192 177 189 227 240 220 141 122 124 139 148 140
215 208 200 193 191 194 191 245 245 224 225 236 185 146 150 128 233 184 182 215 345 125 131 157 145 151 165 162 156 178 156 109 137 146 143 152 124 315 225 158 0 40 53 21 60 125 135 77 96 13 335 127 108 69 23 25 64 103 121 105 76 19 29 32 5 58 115 261 284 183 188 178 241 275 51 79 187 163 173 207 210 177 133 138 157 154 155 152
217 215 206 197 197 195 183 213 255 222 219 193 157 150 161 144 239 224 189 100 199 181 161 172 162 159 176 168 151 172 160 132 165 163 149 161 166 183 197 186 152 115 251 210 179 90 157 188 137 64 326 199 124 86 33 1 358 83 136 119 101 345 4 1 275 104 213 244 294 304 201 205 240 259 10 345 212 187 207 219 182 131 138 171 179 176 165 156
216 216 209 200 200 200 196 199 357 185 183 166 159 184 170 171 204 217 199 160 177 187 149 154 161 160 172 174 158 162 158 147 169 169 154 161 174 193 212 209 182 182 196 172 170 147 218 292 128 106 334 248 172 140 125 269 236 184 163 134 140 168 199 239 222 213 238 247 291 330 16 258 266 281 264 235 217 216 229 244 224 143 213 209 180 174 177 174
211 211 207 202 204 208 206 209 216 163 164 156 150 163 175 205 203 201 207 197 134 109 138 144 149 155 171 182 158 152 157 158 163 164 155 159 181 200 213 223 206 205 154 157 177 172 196 277 185 167 178 181 192 193 164 154 173 199 185 153 171 173 183 209 187 210 241 263 301 318 7 215 232 278 255 219 227 250 251 255 242 219 232 223 169 172 183 189
200 206 208 204 205 212 213 214 215 173 160 154 156 175 187 206 203 204 209 188 134 110 119 134 139 151 174 189 155 156 152 149 166 168 166 175 195 194 191 209 208 201 177 191 205 163 196 246 193 163 163 165 181 210 164 127 146 221 205 189 221 206 177 180 172 184 167 1 291 244 237 223 210 265 265 284 315 281 259 253 246 242 246 239 213 213 204 197
177 195 207 206 206 211 213 216 210 184 172 165 169 188 207 206 201 203 189 145 144 137 124 133 141 154 171 174 186 185 51 93 162 170 186 194 211 203 195 198 196 197 190 187 200 139 173 249 325 42 137 164 178 219 168 130 163 194 168 202 219 157 135 178 259 60 97 261 261 196 248 275 308 279 254 235 245 242 235 245 244 244 245 245 247 241 230 218
177 179 203 210 210 210 212 216 206 185 184 204 188 196 215 214 213 208 142 129 143 142 138 151 169 175 170 161 189 185 158 124 159 170 183 188 218 209 207 209 188 196 201 192 212 167 150 208 306 34 136 201 304 329 50 42 91 133 171 208 136 39 35 142 237 349 138 247 262 185 237 270 287 275 259 214 230 234 231 235 235 238 237 240 248 249 247 233
192 178 213 219 210 210 214 215 199 171 149 220 212 213 214 211 217 233 164 134 145 152 160 168 172 187 175 167 185 178 165 163 170 182 176 175 221 203 196 206 190 197 203 192 207 233 156 192 299 351 357 313 348 24 140 3 45 116 178 233 109 106 256 140 167 242 213 238 267 246 252 260 233 246 281 248 220 220 223 223 222 228 227 232 246 254 252 225
228 182 237 215 205 211 215 204 182 151 157 180 206 218 216 209 212 234 295 145 160 168 180 175 158 192 196 175 170 171 175 177 170 182 184 175 216 202 187 193 196 198 197 188 198 212 141 193 250 324 322 351 38 213 197 195 27 36 355 334 94 151 187 174 181 196 182 215 256 273 281 261 226 227 246 237 220 205 207 216 222 223 223 227 237 249 244 200
282 215 298 192 196 202 198 184 160 131 173 188 207 228 263 227 210 258 349 71 179 180 189 187 162 172 201 181 160 163 181 190 174 182 200 179 199 215 187 182 186 187 182 183 193 146 105 201 209 317 332 19 173 215 194 172 158 162 249 220 199 155 133 172 254 185 163 195 237 271 277 264 237 201 219 228 225 209 197 203 217 215 217 225 230 236 225 189
224 243 304 172 186 182 168 159 151 141 152 208 236 271 325 339 321 278 352 39 24 47 150 205 181 173 182 175 171 165 170 190 181 184 207 190 199 226 186 173 168 159 155 169 190 178 167 191 169 154 257 212 214 214 194 183 181 187 196 198 201 192 158 186 249 222 155 185 211 210 270 271 249 167 203 215 209 206 187 183 200 206 213 228 236 226 199 185
231 222 145 162 176 168 154 160 157 121 155 216 204 210 310 327 332 289 332 21 19 34 33 281 207 184 181 176 176 163 159 186 188 187 209 206 207 215 185 169 161 156 153 170 196 194 174 152 160 179 199 200 217 208 182 179 183 204 222 209 199 192 176 181 213 212 163 227 236 203 259 268 261 107 110 85 73 94 154 165 177 193 208 217 224 203 163 169
226 215 94 161 176 168 159 190 156 118 202 211 204 227 264 306 327 328 327 338 350 20 1 291 278 198 194 183 174 167 167 187 196 195 207 216 215 210 182 169 159 159 161 168 194 192 148 131 173 198 207 64 37 16 18 71 99 233 253 212 176 197 193 184 193 193 166 201 217 197 246 262 290 60 70 94 89 82 101 165 168 182 221 214 207 188 150 154
226 239 45 174 184 181 181 192 164 168 178 149 194 218 210 255 281 294 301 265 168 11 336 239 297 314 202 185 178 179 179 186 202 203 203 210 223 215 187 176 163 162 172 173 171 170 171 174 164 171 200 324 0 345 326 335 111 237 243 196 197 213 189 168 189 216 220 219 207 192 241 255 278 25 15 52 113 158 210 229 199 205 248 239 217 195 172 169
231 241 289 185 192 195 204 198 153 172 170 153 180 195 181 212 239 239 253 289 335 301 302 256 321 10 32 24 11 193 191 195 202 205 205 207 219 299 200 183 174 176 183 171 165 162 174 181 170 177 200 216 225 219 206 197 175 240 231 203 203 204 186 172 171 190 228 235 222 209 244 253 262 22 15 328 237 226 233 239 240 242 249 255 239 210 202 190
214 212 189 174 199 213 228 223 173 173 174 170 180 184 185 200 217 214 224 248 273 268 293 314 330 11 13 211 235 292 236 226 221 201 204 205 196 2 339 198 184 177 142 137 156 151 144 189 188 194 209 217 224 219 171 149 149 199 216 205 201 204 199 189 174 200 220 236 240 229 237 258 266 265 281 282 262 244 246 241 242 251 253 261 256 235 228 221
226 220 195 167 194 227 233 222 209 199 179 174 179 177 187 202 207 183 200 214 220 220 234 278 270 244 224 185 203 217 214 255 272 215 199 198 153 34 8 4 160 151 124 126 149 131 117 206 205 207 221 228 228 214 160 154 171 198 206 203 204 207 203 198 210 222 219 221 248 240 224 250 264 255 232 254 258 245 248 243 231 235 237 236 236 237 240 236
227 238 208 190 200 213 219 211 203 205 191 177 183 179 182 197 201 186 193 204 206 201 202 229 237 231 235 211 195 208 195 210 258 230 200 171 109 98 30 8 13 96 108 96 72 106 137 207 217 213 228 239 239 225 178 173 185 193 197 202 204 205 204 206 220 228 221 212 242 249 228 232 258 260 230 233 246 236 232 236 231 229 225 207 199 212 231 237
228 261 238 225 231 218 216 205 195 205 200 182 188 199 187 195 203 199 180 171 201 205 190 206 223 220 230 232 209 213 213 204 228 235 202 123 114 130 108 1 342 13 56 99 69 76 158 206 222 217 234 248 248 240 219 215 223 207 201 202 199 204 206 209 220 227 227 228 240 252 251 244 255 262 245 235 248 242 238 252 263 251 227 205 205 222 237 242
213 237 230 233 257 270 256 217 193 204 205 189 196 207 196 199 204 201 177 164 186 196 187 208 220 207 213 223 216 221 224 213 230 235 188 146 195 186 165 192 226 15 42 120 98 339 194 210 218 208 244 257 252 249 240 238 249 246 235 222 211 211 212 214 222 227 230 237 240 247 257 259 257 259 258 259 263 271 278 279 279 272 250 230 232 240 244 247
236 293 329 282 239 217 237 242 194 198 205 197 202 204 203 209 202 195 193 185 186 180 183 205 216 201 200 212 214 226 228 219 230 235 170 144 193 199 195 197 129 110 127 130 59 67 184 211 152 137 229 252 251 253 252 247 261 265 257 243 230 224 220 218 220 221 223 230 236 242 251 256 257 259 263 267 270 275 276 272 271 271 256 234 240 247 248 252
237 275 290 289 258 209 201 220 210 206 205 202 207 204 205 212 202 191 201 200 196 195 190 200 204 185 184 205 211 220 222 219 227 232 121 120 135 100 102 128 116 123 143 138 73 83 157 172 194 173 209 250 255 256 210 158 229 250 246 241 235 233 236 233 226 224 222 221 228 235 238 248 262 269 264 265 267 262 264 268 270 267 252 234 243 255 257 258